This demonstration page uses our WeatherBlox Daily Observations layout. Learn more.

Hourly Observations for January 3, 2018

Temp ( °F °C ) Dew Point ( °F °C ) Humidity (%) Winds ( mph kmh ) Pressure ( in mb ) Visibility ( mi km ) Precip ( " mm )
12:15 am 00:15 Clear 20 -6.4 13 -10.4 74 74 WNW 8 13 30.39 1029 10 16.0934 0 0
12:35 am 00:35 Clear 20 -6.5 13 -10.3 75 75 WNW 10 17 30.39 1029 10 16.0934 0 0
12:55 am 00:55 Clear 20 -6.5 13 -10.5 74 74 WNW 12 19 30.39 1029 10 16.0934 0 0
1:15 am 01:15 Clear 21 -6 14 -10 74 74 WNW 10 17 30.36 1028 10 16.0934 0 0
1:35 am 01:35 Clear 22 -5.3 16 -9.1 75 75 NNW 15 24 30.39 1029 10 16.0934 0 0
1:55 am 01:55 Clear 25 -4.1 16 -9 69 69 NW 15 24 30.36 1028 10 16.0934 0 0
2:15 am 02:15 Clear 23 -4.8 16 -9.1 72 72 NNW 10 17 30.39 1029 10 16.0934 0 0
2:35 am 02:35 Clear 22 -5.8 15 -9.6 75 75 NNW 10 17 30.39 1029 10 16.0934 0 0
2:55 am 02:55 Clear 19 -7.3 13 -10.5 78 78 NW 9 15 30.39 1029 10 16.0934 0 0
3:15 am 03:15 Clear 19 -7.5 13 -10.5 79 79 NNW 7 11 30.42 1030 10 16.0934 0 0
3:35 am 03:35 Clear 18 -8 13 -10.8 81 81 NNW 9 15 30.45 1031 10 16.0934 0 0
3:55 am 03:55 Clear 18 -7.8 13 -10.5 81 81 NNW 12 19 30.45 1031 10 16.0934 0 0
4:15 am 04:15 Clear 19 -7.1 14 -10 80 80 NNW 9 15 30.42 1030 10 16.0934 0 0
4:35 am 04:35 Clear 19 -7 15 -9.7 81 81 NNW 10 17 30.42 1030 10 16.0934 0 0
4:55 am 04:55 Clear 20 -6.5 15 -9.2 81 81 NNW 13 20 30.42 1030 10 16.0934 0 0
5:15 am 05:15 Clear 16 -8.9 12 -11.2 84 84 NW 8 13 30.45 1031 10 16.0934 0 0
5:35 am 05:35 Clear 17 -8.6 13 -10.5 86 86 NW 7 11 30.45 1031 10 16.0934 0 0
5:55 am 05:55 Partly Cloudy 15 -9.7 12 -11.2 89 89 NW 8 13 30.48 1032 10 16.0934 0 0
6:15 am 06:15 Partly Cloudy 15 -9.3 12 -10.9 88 88 NNW 10 17 30.48 1032 10 16.0934 0 0
6:35 am 06:35 Partly Cloudy 16 -9 13 -10.7 88 88 NW 8 13 30.48 1032 10 16.0934 0 0
6:55 am 06:55 Cloudy 16 -8.8 13 -10.4 88 88 NNW 5 7 30.48 1032 10 16.0934 0 0
7:15 am 07:15 Cloudy 16 -8.7 13 -10.4 88 88 NW 8 13 30.48 1032 10 16.0934 0 0
7:35 am 07:35 Cloudy 15 -9.2 13 -10.6 90 90 NW 6 9 30.48 1032 10 16.0934 0 0
7:55 am 07:55 Mostly Cloudy 16 -9 13 -10.6 88 88 NNW 7 11 30.48 1032 10 16.0934 0 0
8:15 am 08:15 Partly Cloudy 16 -9 13 -10.5 89 89 NW 7 11 30.48 1032 10 16.0934 0 0
8:35 am 08:35 Partly Cloudy 13 -10.3 11 -11.8 89 89 NW 8 13 30.5 1033 10 16.0934 0 0
8:55 am 08:55 Partly Cloudy 14 -10 11 -11.5 89 89 NNW 6 9 30.53 1034 10 16.0934 0 0
9:15 am 09:15 Sunny 15 -9.4 12 -11.1 88 88 NW 6 9 30.5 1033 10 16.0934 0 0
9:35 am 09:35 Sunny 17 -8.3 14 -10.1 87 87 NW 7 11 30.5 1033 10 16.0934 0 0
9:55 am 09:55 Sunny 19 -7.3 15 -9.5 84 84 NW 7 11 30.5 1033 10 16.0934 0 0
10:15 am 10:15 Sunny 21 -6.1 16 -8.7 82 82 NW 5 7 30.48 1032 10 16.0934 0 0
10:35 am 10:35 Sunny 22 -5.5 17 -8.2 82 82 NW 7 11 30.5 1033 10 16.0934 0 0
10:55 am 10:55 Sunny 23 -5 18 -7.9 80 80 NW 7 11 30.5 1033 10 16.0934 0 0
11:15 am 11:15 Sunny 23 -4.9 18 -7.8 80 80 NW 6 9 30.48 1032 10 16.0934 0 0
11:35 am 11:35 Sunny 24 -4.5 18 -7.6 79 79 NW 8 13 30.48 1032 10 16.0934 0 0
11:55 am 11:55 Sunny 24 -4.5 18 -7.6 79 79 NNW 7 11 30.48 1032 10 16.0934 0 0
12:15 pm 12:15 Sunny 24 -4.3 19 -7.5 79 79 NW 7 11 30.48 1032 10 16.0934 0 0
12:35 pm 12:35 Sunny 25 -4 19 -7.5 77 77 NNW 9 15 30.45 1031 10 16.0934 0 0
12:55 pm 12:55 Sunny 25 -4 19 -7.5 77 77 NNW 7 11 30.45 1031 10 16.0934 0 0
1:15 pm 13:15 Sunny 25 -3.7 19 -7.1 78 78 NW 7 11 30.42 1030 10 16.0934 0 0
1:35 pm 13:35 Sunny 26 -3.5 20 -6.8 78 78 NW 7 11 30.39 1029 10 16.0934 0 0
1:55 pm 13:55 Sunny 26 -3.4 20 -6.9 77 77 NNW 8 13 30.39 1029 10 16.0934 0 0
2:15 pm 14:15 Sunny 26 -3.2 19 -7 75 75 NNW 7 11 30.39 1029 10 16.0934 0 0
2:35 pm 14:35 Sunny 26 -3.1 19 -7 75 75 NNW 8 13 30.39 1029 10 16.0934 0 0
2:55 pm 14:55 Sunny 26 -3.2 20 -6.8 76 76 NW 5 7 30.39 1029 10 16.0934 0 0
3:15 pm 15:15 Sunny 26 -3.2 20 -6.9 76 76 NW 5 7 30.39 1029 10 16.0934 0 0
3:35 pm 15:35 Sunny 27 -3 20 -6.5 77 77 NW 5 7 30.39 1029 10 16.0934 0 0
3:55 pm 15:55 Sunny 27 -2.8 20 -6.4 77 77 WNW 3 6 30.39 1029 10 16.0934 0 0
4:15 pm 16:15 Sunny 27 -3 20 -6.5 77 77 NW 5 7 30.39 1029 10 16.0934 0 0
4:35 pm 16:35 Sunny 26 -3.1 20 -6.5 78 78 Calm 30.39 1029 10 16.0934 0 0
4:55 pm 16:55 Sunny 25 -3.7 20 -6.9 79 79 Calm 30.39 1029 10 16.0934 0 0
5:15 pm 17:15 Sunny 24 -4.5 19 -7 83 83 Calm 30.39 1029 10 16.0934 0 0
5:35 pm 17:35 Clear 23 -5 19 -7.3 84 84 Calm 30.39 1029 10 16.0934 0 0
5:55 pm 17:55 Clear 22 -5.5 19 -7.2 88 88 Calm 30.39 1029 10 16.0934 0 0
6:15 pm 18:15 Clear 20 -6.8 17 -8.2 90 90 Calm 30.39 1029 10 16.0934 0 0
6:35 pm 18:35 Clear 17 -8.4 15 -9.7 90 90 Calm 30.42 1030 10 16.0934 0 0
6:55 pm 18:55 Clear 19 -7.3 16 -8.7 90 90 SW 3 6 30.39 1029 10 16.0934 0 0
7:15 pm 19:15 Clear 17 -8.4 15 -9.6 91 91 Calm 30.42 1030 10 16.0934 0 0
7:35 pm 19:35 Clear 16 -9 13 -10.5 89 89 Calm 30.42 1030 10 16.0934 0 0
7:55 pm 19:55 Clear 16 -8.9 13 -10.4 89 89 Calm 30.42 1030 10 16.0934 0 0
8:15 pm 20:15 Clear 16 -9 13 -10.7 88 88 Calm 30.42 1030 10 16.0934 0 0
8:35 pm 20:35 Clear 15 -9.7 12 -11 90 90 Calm 30.42 1030 10 16.0934 0 0
8:55 pm 20:55 Clear 16 -9 13 -10.6 88 88 Calm 30.42 1030 10 16.0934 0 0
9:15 pm 21:15 Clear 14 -9.9 12 -11.1 91 91 Calm 30.42 1030 10 16.0934 0 0
9:35 pm 21:35 Clear 15 -9.7 11 -11.5 87 87 Calm 30.42 1030 10 16.0934 0 0
9:55 pm 21:55 Clear 15 -9.4 13 -10.8 90 90 Calm 30.45 1031 10 16.0934 0 0
10:15 pm 22:15 Clear 15 -9.4 12 -10.9 89 89 Calm 30.42 1030 10 16.0934 0 0
10:35 pm 22:35 Clear 15 -9.2 12 -10.9 88 88 Calm 30.45 1031 10 16.0934 0 0
10:55 pm 22:55 Clear 16 -9 13 -10.5 89 89 Calm 30.45 1031 10 16.0934 0 0
11:15 pm 23:15 Clear 15 -9.2 13 -10.7 89 89 Calm 30.45 1031 10 16.0934 0 0
11:35 pm 23:35 Clear 15 -9.4 13 -10.5 92 92 Calm 30.45 1031 10 16.0934 0 0
11:55 pm 23:55 Clear 15 -9.7 11 -11.4 88 88 Calm 30.45 1031 10 16.0934 0 0

Powered by AerisWeather